Fort Smith, AR

1:03 AM CDT on July 24, 2017 (GMT -0500)
Fort Smith Regional

Weather History for KFSM - December, 2012

Change the Weather History Date:

Tuesday, December 25, 2012

  Actual Average Record
Temperature  
Mean Temperature 38 °F 40 °F  
Max Temperature 43 °F 50 °F 75 °F (1889)
Min Temperature 32 °F 30 °F -1 °F (1983)
Degree Days  
Heating Degree Days 27 25  
Month to date heating degree days 379 579  
Since 1 July heating degree days 891 1144  
Moisture  
Dew Point 28 °F    
Average Humidity 71    
Maximum Humidity 89    
Minimum Humidity 53    
Precipitation  
Precipitation 0.76 in 0.09 in 1.98 in (1888)
Month to date precipitation 2.12 2.75  
Year to date precipitation 33.31 44.92  
Sea Level Pressure  
Sea Level Pressure 29.91 in    
Wind  
Wind Speed 11 mph (NNE)    
Max Wind Speed 20 mph    
Max Gust Speed 26 mph    
Visibility 5 miles    
Events Fog , Rain , Snow    
T = Trace of Precipitation, MM = Missing Value Source: NWS Daily Summary

Daily Weather History Graph

Daily Weather History Graph

Search for Another Location

Airport or City:

Trip Planner

Search our weather history database for the weather conditions in past years. The results will help you decide how hot, cold, wet, or windy it might be!

Date:

Astronomy

Dec. 25, 2012 Rise Set
Actual Time 7:24 AM CST 5:11 PM CST
Civil Twilight 6:56 AM CST 5:39 PM CST
Nautical Twilight 6:24 AM CST 6:11 PM CST
Astronomical Twilight 5:53 AM CST 6:42 PM CST
Moon 3:18 PM CST (12/25) 4:59 AM CST (12/25)
Length of Visible Light 10h 43m
Length of Day
9h 46m
Waxing Gibbous, 94% of the Moon is Illuminated
Dec 25
Waxing Gibbous
Dec 28
Full
Jan 4
Last Quarter
Jan 11
New
Jan 18
First Quarter

Hourly Weather History & Observations

Time (CST) Temp. Windchill Dew Point Humidity Pressure Visibility Wind Dir Wind Speed Gust Speed Precip Events Conditions
12:53 AM 42.1 °F 37.1 °F 30.0 °F 62% 29.94 in 10.0 mi East 8.1 mph - N/A   Mostly Cloudy
1:53 AM 43.0 °F 37.2 °F 28.9 °F 58% 29.94 in 10.0 mi East 10.4 mph - N/A   Overcast
2:53 AM 42.1 °F 35.7 °F 27.0 °F 55% 29.93 in 10.0 mi East 11.5 mph - N/A   Scattered Clouds
3:53 AM 42.1 °F 36.1 °F 27.0 °F 55% 29.92 in 10.0 mi East 10.4 mph - N/A   Clear
4:53 AM 41.0 °F 34.3 °F 27.0 °F 57% 29.89 in 10.0 mi ENE 11.5 mph - N/A   Scattered Clouds
5:53 AM 41.0 °F 35.2 °F 27.0 °F 57% 29.97 in 10.0 mi East 9.2 mph - 0.00 in Rain Light Rain
6:53 AM 37.9 °F 32.1 °F 32.0 °F 79% 29.99 in 4.0 mi East 8.1 mph - 0.12 in Rain Rain
7:53 AM 37.0 °F 28.5 °F 32.0 °F 82% 29.91 in 5.0 mi East 13.8 mph - 0.07 in   Haze
8:53 AM 37.0 °F 28.1 °F 30.9 °F 79% 29.90 in 6.0 mi East 15.0 mph 20.7 mph N/A   Haze
9:53 AM 37.0 °F 27.7 °F 28.0 °F 70% 29.90 in 7.0 mi ENE 16.1 mph - N/A   Scattered Clouds
10:51 AM 35.6 °F 27.1 °F 26.6 °F 70% 29.86 in 7.0 mi East 12.7 mph - N/A   Overcast
10:53 AM 36.0 °F 26.7 °F 27.0 °F 70% 29.87 in 7.0 mi East 15.0 mph 20.7 mph N/A   Overcast
11:53 AM 35.1 °F 25.9 °F 26.1 °F 70% 29.84 in 7.0 mi East 13.8 mph - N/A   Overcast
12:53 PM 36.0 °F 33.3 °F 28.0 °F 73% 29.85 in 7.0 mi East 3.5 mph - 0.00 in Rain Light Rain
1:21 PM 35.6 °F - 28.4 °F 75% 29.85 in 3.0 mi Calm Calm - 0.03 in Rain Light Rain
1:50 PM 33.8 °F - 28.4 °F 81% 29.86 in 1.8 mi Calm Calm - 0.07 in Snow Light Snow
1:53 PM 34.0 °F - 30.0 °F 85% 29.87 in 1.2 mi Calm Calm - 0.07 in Snow Light Snow
2:08 PM 33.8 °F - 30.2 °F 87% 29.88 in 0.5 mi Calm Calm - 0.02 in Fog , Snow Snow
2:22 PM 33.8 °F - 30.2 °F 87% 29.87 in 0.5 mi Calm Calm - 0.04 in Fog , Snow Snow
2:28 PM 33.8 °F - 30.2 °F 87% 29.87 in 0.2 mi Calm Calm - 0.06 in Fog , Snow Snow
2:48 PM 33.8 °F 26.4 °F 30.2 °F 87% 29.87 in 0.2 mi North 9.2 mph - 0.11 in Fog , Snow Snow
2:49 PM 33.1 °F 24.4 °F 30.0 °F 89% 29.88 in 0.2 mi North 11.5 mph - 0.12 in Fog , Snow Snow
3:19 PM 32.0 °F 21.6 °F 28.4 °F 87% 29.88 in 0.2 mi North 15.0 mph - 0.06 in Fog , Snow Snow
3:31 PM 32.0 °F 20.8 °F 28.4 °F 87% 29.88 in 0.5 mi North 17.3 mph - 0.06 in Fog , Snow Light Snow
3:43 PM 32.0 °F 21.6 °F 28.4 °F 87% 29.88 in 0.8 mi North 15.0 mph - 0.08 in Snow Light Snow
3:53 PM 32.0 °F 22.5 °F 28.9 °F 88% 29.89 in 0.5 mi North 12.7 mph - 0.08 in Fog , Snow Snow
4:19 PM 32.0 °F 24.8 °F 28.4 °F 87% 29.88 in 0.5 mi NNW 8.1 mph - 0.05 in Fog , Snow Snow
4:32 PM 32.0 °F 24.2 °F 28.4 °F 87% 29.88 in 0.8 mi NNW 9.2 mph - N/A Snow Light Snow
4:53 PM 32.0 °F 24.2 °F 28.9 °F 88% 29.89 in 0.5 mi NNW 9.2 mph - 0.08 in Fog , Snow Snow
5:10 PM 32.0 °F 23.0 °F 28.4 °F 87% 29.89 in 1.0 mi North 11.5 mph - 0.03 in Snow Light Snow
5:21 PM 32.0 °F 22.5 °F 28.4 °F 87% 29.89 in 0.8 mi North 12.7 mph - 0.05 in Snow Light Snow
5:24 PM 32.0 °F 23.0 °F 28.4 °F 87% 29.89 in 1.0 mi North 11.5 mph - 0.06 in Snow Light Snow
5:36 PM 32.0 °F 22.5 °F 28.4 °F 87% 29.89 in 0.8 mi NNW 12.7 mph - 0.07 in Snow Light Snow
5:53 PM 32.0 °F 24.8 °F 28.9 °F 88% 29.91 in 0.8 mi North 8.1 mph - 0.11 in Snow Light Snow
6:53 PM 33.1 °F 24.9 °F 28.0 °F 82% 29.92 in 1.2 mi North 10.4 mph - 0.11 in Snow Light Snow
7:06 PM 33.8 °F 23.9 °F 26.6 °F 75% 29.91 in 2.0 mi North 15.0 mph 23.0 mph 0.00 in Snow Light Snow
7:30 PM 33.8 °F 22.5 °F 26.6 °F 75% 29.91 in 1.8 mi North 19.6 mph 26.5 mph 0.00 in Snow Light Snow
7:53 PM 34.0 °F 24.2 °F 27.0 °F 75% 29.93 in 1.8 mi North 15.0 mph - 0.00 in Snow Light Snow
8:04 PM 33.8 °F 25.3 °F 26.6 °F 75% 29.92 in 2.5 mi North 11.5 mph 20.7 mph 0.00 in Snow Light Snow
8:22 PM 33.8 °F 22.8 °F 26.6 °F 75% 29.93 in 4.0 mi North 18.4 mph 23.0 mph 0.00 in Snow Light Snow
8:36 PM 35.6 °F 26.6 °F 24.8 °F 65% 29.94 in 9.0 mi North 13.8 mph 21.9 mph 0.00 in   Overcast
8:53 PM 34.0 °F 23.8 °F 25.0 °F 70% 29.95 in 10.0 mi North 16.1 mph - 0.00 in   Overcast
9:53 PM 34.0 °F 24.6 °F 24.1 °F 67% 29.98 in 10.0 mi North 13.8 mph 21.9 mph N/A   Overcast
10:53 PM 33.1 °F 24.9 °F 23.0 °F 66% 30.00 in 10.0 mi NNW 10.4 mph - N/A   Overcast
11:02 PM 33.8 °F 24.8 °F 23.0 °F 65% 29.99 in 10.0 mi NNW 12.7 mph 21.9 mph N/A   Overcast
11:53 PM 33.1 °F 23.9 °F 21.9 °F 64% 30.02 in 10.0 mi NNW 12.7 mph 18.4 mph N/A   Overcast